Overview Statistics Trail Chart Weather Telemetry Raw packets
 

This is the latest recevied weather packets stored in our database for station/object KV9E. If no packets are shown the sender has not sent any weather packets the latest 10 day(s).

<< 37 38 39 40 41 42 43 >>
Time Temp. Humidity Pressure Rain* Wind** Luminosity Snow
1788360645 28.33° C 70% 1021 hPa 0 mm - 50 W/m² -
1788360343 27.78° C 71% 1021.3 hPa 0 mm - 48 W/m² -
1788360037 27.78° C 73% 1021 hPa 0 mm - 47 W/m² -
1788359732 27.78° C 73% 1020.7 hPa 0 mm - 55 W/m² -
1788359428 27.78° C 76% 1020.8 hPa 0 mm - 44 W/m² -
1788359123 27.78° C 74% 1020.9 hPa 0 mm - 43 W/m² -
1788358819 27.78° C 75% 1020.8 hPa 0 mm - 45 W/m² -
1788358518 27.78° C 75% 1020.6 hPa 0 mm - 205 W/m² -
1788358213 27.22° C 76% 1020.7 hPa 0 mm - 184 W/m² -
1788357908 26.67° C 77% 1020.7 hPa 0 mm - 65 W/m² -
1788357604 26.67° C 79% 1020.8 hPa 0 mm - 114 W/m² -
1788357298 26.67° C 78% 1020.6 hPa 0 mm - 45 W/m² -
1788356998 26.67° C 79% 1020.9 hPa 0 mm - 103 W/m² -
1788356693 26.67° C 79% 1021 hPa 0 mm - 40 W/m² -
1788356388 26.67° C 78% 1020.7 hPa 0 mm - 189 W/m² -
1788356083 26.11° C 79% 1020.9 hPa 0 mm - 178 W/m² -
1788355778 25.56° C 80% 1020.9 hPa 0 mm - 37 W/m² -
1788355473 25° C 82% 1020.9 hPa 0 mm - 94 W/m² -
1788355167 25° C 81% 1020.9 hPa 0 mm - 35 W/m² -
1788354864 25° C 82% 1020.8 hPa 0 mm - 34 W/m² -
1788354563 24.44° C 82% 1020.8 hPa 0 mm - 33 W/m² -
1788354260 24.44° C 82% 1021 hPa 0 mm - 33 W/m² -
1788353959 24.44° C 83% 1020.8 hPa 0 mm - 32 W/m² -
1788353656 24.44° C 83% 1020.9 hPa 0 mm - 31 W/m² -
1788353352 24.44° C 84% 1020.8 hPa 0 mm - 30 W/m² -

* Rain latest hour (hover to see other rain measurements)
** Current wind speed in m/s (hover to see current wind gust speed)